Waarnemingen

Advertentie
Mijn weer
Auch, Frankrijk (7622): temperatuur & dauwpunt: 19.09.2017 06:00:00 - 25.09.2017 06:00:00 (CEST)Auch, Frankrijk (7622): temperatuur 5cm: 19.09.2017 06:00:00 - 25.09.2017 06:00:00 (CEST)Auch, Frankrijk (7622): temperatuur -20cm & temperatuur -100cm: 19.09.2017 06:00:00 - 25.09.2017 06:00:00 (CEST)Auch, Frankrijk (7622): windsnelheid & windstoten: 19.09.2017 06:00:00 - 25.09.2017 06:00:00 (CEST)Auch, Frankrijk (7622): windrichting: 19.09.2017 06:00:00 - 25.09.2017 06:00:00 (CEST)Auch, Frankrijk (7622): luchtdruk: 19.09.2017 06:00:00 - 25.09.2017 06:00:00 (CEST)Auch, Frankrijk (7622): zicht: 19.09.2017 06:00:00 - 25.09.2017 06:00:00 (CEST)Auch, Frankrijk (7622): Zonneschijnduur: 19.09.2017 06:00:00 - 25.09.2017 06:00:00 (CEST)Auch, Frankrijk (7622): neerslag: 19.09.2017 06:00:00 - 25.09.2017 06:00:00 (CEST)
Datum & Tijd tt [°C] td [°C] tt 5cm [°C] tt -20cm [°C] tt -100cm [°C] ff [km/u] ff [kn] fx [km/u] fx [kn] dd ppp [hPa] vv [km] sd [min] rr [mm]
25.09.2017 06:00:00 18,7 15,9 17,8 18,8 18,8 12 6 35 19 WNW 1019,3 18 0 0,0
25.09.2017 05:00:00 18,7 16,3 16,8 18,9 18,8 13 7 35 19 W 1018,2 15 0 0,0
25.09.2017 04:00:00 17,0 15,3 9,7 19,1 18,8 11 6 21 11 Z 1018,2 18 0 0,0
25.09.2017 03:00:00 12,2 11,1 9,5 19,2 18,8 0 0 0 0 N 1017,7 20 0 0,0
25.09.2017 02:00:00 12,8 11,2 9,7 19,4 18,8 0 0 6 3 N 1017,6 20 0 0,0
25.09.2017 01:00:00 12,8 10,9 10,4 19,6 18,8 5 3 6 3 Z 1017,7 20 0 0,0
25.09.2017 00:00:00 13,7 11,0 10,6 19,7 18,8 3 2 6 3 ZZW 1017,7 20 0 0,0
24.09.2017 23:00:00 15,1 11,5 11,6 19,8 18,8 4 2 7 4 ZZW 1018,0 20 0 0,0
24.09.2017 22:00:00 16,4 11,8 12,8 19,8 18,8 2 1 5 3 Z 1018,0 20 0 0,0
24.09.2017 21:00:00 18,7 12,4 13,7 19,8 18,8 0 0 3 1 N 1017,8 20 0 0,0
24.09.2017 20:00:00 24,0 10,3 17,8 19,6 18,8 2 1 13 7 O 1017,4 20 29 0,0
24.09.2017 19:00:00 27,3 8,2 27,6 19,4 18,8 6 4 16 8 ONO 1016,9 20 40 0,0
24.09.2017 18:00:00 28,9 8,6 31,7 19,1 18,8 5 3 13 7 ONO 1016,9 20 60 0,0
24.09.2017 17:00:00 29,4 8,4 32,6 18,8 18,8 4 2 14 7 ZO 1017,2 20 60 0,0
24.09.2017 16:00:00 29,1 10,2 33,2 18,4 18,8 6 3 16 9 ZO 1017,6 20 60 0,0
24.09.2017 15:00:00 28,2 10,4 32,5 18,0 18,8 8 4 17 9 OZO 1018,1 20 60 0,0
24.09.2017 14:00:00 26,8 12,8 31,5 17,8 18,8 6 3 16 9 O 1018,7 18 60 0,0
24.09.2017 13:00:00 24,9 15,2 29,5 17,6 18,8 4 2 11 6 N 1019,3 19 60 0,0
24.09.2017 12:00:00 22,1 16,4 25,0 17,4 18,8 5 3 10 5 N 1019,9 20 60 0,0
24.09.2017 11:00:00 19,6 15,9 18,6 17,5 18,8 2 1 6 3 NO 1020,2 15 55 0,0
24.09.2017 10:00:00 16,1 15,1 15,9 17,6 18,8 0 0 8 4 N 1020,5 12 21 0,0
24.09.2017 09:00:00 12,9 12,3 10,7 17,7 18,8 6 3 10 5 Z 1020,5 19 40 0,0
24.09.2017 08:00:00 11,5 10,9 10,6 17,9 18,8 8 4 11 6 Z 1020,1 20 0 0,0
24.09.2017 07:00:00 11,8 11,2 10,8 18,0 18,8 7 4 11 6 Z 1020,0 20 0 0,0
24.09.2017 06:00:00 11,8 11,2 10,6 18,1 18,8 10 6 13 7 Z 1019,8 20 0 0,0
24.09.2017 05:00:00 11,9 11,3 8,7 18,3 18,8 7 4 13 7 ZZW 1019,6 20 0 0,0
24.09.2017 04:00:00 11,5 10,7 8,9 18,5 18,9 0 0 6 4 N 1019,7 20 0 0,0
24.09.2017 03:00:00 12,6 11,7 10,0 18,6 18,8 5 3 9 5 ZW 1019,7 20 0 0,0
24.09.2017 02:00:00 12,1 11,2 9,9 18,7 18,8 2 1 7 4 ZZW 1019,5 20 0 0,0
24.09.2017 01:00:00 12,8 11,9 9,4 18,9 18,8 8 4 9 5 Z 1019,3 20 0 0,0
24.09.2017 00:00:00 13,1 11,3 10,0 19,0 18,8 0 0 5 3 N 1019,3 20 0 0,0
23.09.2017 23:00:00 14,2 11,7 10,7 19,0 18,9 3 1 4 2 Z 1019,2 20 0 0,0
23.09.2017 22:00:00 15,5 12,1 11,8 19,1 18,8 3 1 5 3 Z 1018,8 20 0 0,0
23.09.2017 21:00:00 18,1 12,8 12,9 19,0 18,9 0 0 3 2 N 1018,3 20 0 0,0
23.09.2017 20:00:00 23,1 10,8 19,0 18,9 18,8 2 1 11 6 O 1017,6 16 31 0,0
23.09.2017 19:00:00 26,5 9,4 28,0 18,7 18,8 6 3 13 7 O 1017,2 20 60 0,0
23.09.2017 18:00:00 26,9 9,3 28,8 18,4 18,8 7 4 13 7 O 1017,2 20 47 0,0
23.09.2017 17:00:00 26,7 9,1 29,8 18,1 18,9 7 4 16 9 O 1017,5 20 60 0,0
23.09.2017 16:00:00 26,4 10,9 30,0 17,8 18,8 9 5 21 12 ZO 1017,7 20 60 0,0
23.09.2017 15:00:00 25,6 10,6 28,9 17,5 18,8 8 5 23 12 O 1018,4 20 60 0,0
23.09.2017 14:00:00 24,6 10,8 27,2 17,2 18,8 10 5 20 11 O 1019,0 20 52 0,0
23.09.2017 13:00:00 23,7 11,7 26,1 17,1 18,8 11 6 22 12 OZO 1019,1 20 60 0,0
23.09.2017 12:00:00 22,1 13,2 23,8 17,0 18,9 9 5 22 12 ZO 1019,7 20 60 0,0
23.09.2017 11:00:00 18,4 15,6 20,2 17,1 18,9 0 0 6 3 N 1020,4 20 60 0,0
23.09.2017 10:00:00 13,8 13,6 13,1 17,2 18,9 0 0 4 2 N 1021,0 20 60 0,0
23.09.2017 09:00:00 10,8 10,6 7,0 17,4 18,9 0 0 3 2 N 1021,1 19 36 0,0
23.09.2017 08:00:00 9,7 9,4 7,0 17,5 18,9 0 0 5 3 N 1021,2 8 0 0,0
23.09.2017 07:00:00 10,6 10,3 8,2 17,6 18,9 4 2 8 5 Z 1021,1 14 0 0,0
23.09.2017 06:00:00 10,7 10,4 7,2 17,8 18,9 5 3 10 5 ZZW 1021,3 18 0 0,0
23.09.2017 05:00:00 10,1 9,8 7,1 18,0 18,9 0 0 3 1 N 1021,5 4,8 0 0,0
23.09.2017 04:00:00 10,8 10,3 8,1 18,1 18,9 2 1 3 2 ZZW 1022,0 5 0 0,0
23.09.2017 03:00:00 11,6 11,0 8,8 18,2 18,9 0 0 4 2 N 1022,4 20 0 0,0
23.09.2017 02:00:00 12,2 11,4 9,3 18,3 18,9 2 1 4 2 Z 1022,6 20 0 0,0
23.09.2017 01:00:00 13,8 12,5 11,1 18,4 18,9 0 0 0 0 N 1022,7 20 0 0,0
23.09.2017 00:00:00 14,6 12,6 12,4 18,4 18,9 0 0 0 0 N 1022,8 20 0 0,0
22.09.2017 23:00:00 15,6 12,9 13,7 18,4 18,9 0 0 3 2 N 1022,7 20 0 0,0
22.09.2017 22:00:00 16,4 12,7 14,8 18,5 18,9 0 0 4 2 N 1022,3 20 0 0,0
22.09.2017 21:00:00 16,9 12,6 14,8 18,4 18,9 0 0 4 2 N 1022,2 20 0 0,0
22.09.2017 20:00:00 18,8 12,1 16,4 18,3 18,9 0 0 7 4 N 1021,7 19 0 0,0
22.09.2017 19:00:00 19,9 10,9 19,2 18,2 18,9 5 3 8 4 WNW 1021,6 20 0 0,0
22.09.2017 18:00:00 20,9 10,7 22,3 18,1 18,9 0 0 12 6 N 1021,5 20 0 0,0
22.09.2017 17:00:00 20,7 11,3 21,9 17,9 18,9 9 5 16 9 NW 1021,9 20 0 0,0
22.09.2017 16:00:00 21,3 11,9 23,1 17,7 18,9 5 3 13 7 WNW 1021,8 20 0 0,0
22.09.2017 15:00:00 21,4 11,4 24,6 17,5 18,9 3 2 9 5 NNO 1021,6 20 4 0,0
22.09.2017 14:00:00 20,6 12,3 24,2 17,3 18,9 5 3 16 9 N 1021,8 20 6 0,0
22.09.2017 13:00:00 19,9 12,9 23,9 17,2 18,9 7 4 16 9 N 1022,2 20 34 0,0
22.09.2017 12:00:00 18,7 12,9 19,8 17,2 19,0 5 3 11 6 NNO 1022,1 14 38 0,0
22.09.2017 11:00:00 16,6 13,7 17,0 17,1 18,9 5 3 11 6 NW 1022,3 20 0 0,0
22.09.2017 10:00:00 15,2 14,9 14,9 17,2 18,9 6 3 12 7 W 1022,3 20 0 0,0
22.09.2017 09:00:00 13,6 13,3 10,6 17,3 18,9 0 0 8 4 N 1021,8 12 28 0,0
22.09.2017 08:00:00 12,2 11,9 9,8 17,4 19,0 4 2 9 5 Z 1021,4 8 0 0,0
22.09.2017 07:00:00 12,6 12,1 10,6 17,6 19,0 4 2 7 4 ZZW 1021,3 7 0 0,2
22.09.2017 06:00:00 13,5 12,9 11,5 17,7 19,0 4 2 9 5 ZZW 1021,2 13 0 0,0
22.09.2017 05:00:00 14,1 13,5 12,3 17,8 19,0 6 3 11 6 ZZW 1021,3 15 0 0,0
22.09.2017 04:00:00 14,4 13,6 12,2 17,9 19,0 3 2 10 5 ZZW 1020,9 19 0 0,0
22.09.2017 03:00:00 15,0 14,2 13,2 18,0 19,0 6 3 14 7 ZW 1020,9 20 0 0,0
22.09.2017 02:00:00 15,4 14,3 14,0 18,1 19,0 6 4 14 8 ZZW 1020,8 20 0 0,0
22.09.2017 01:00:00 15,7 14,1 14,0 18,2 19,0 6 4 18 10 ZZW 1020,5 20 0 0,0
22.09.2017 00:00:00 16,5 13,8 15,2 18,2 19,0 9 5 14 8 ZZW 1020,2 20 0 0,0
21.09.2017 23:00:00 17,6 13,1 16,1 18,2 19,0 4 2 16 9 ZW 1019,9 20 0 0,0
21.09.2017 22:00:00 19,1 12,6 12,8 18,3 19,0 7 4 23 13 W 1019,4 20 0 0,0
21.09.2017 21:00:00 16,9 11,0 12,3 18,2 19,0 5 3 7 4 ZW 1018,7 20 0 0,0
21.09.2017 20:00:00 20,9 9,8 15,3 18,0 19,0 4 2 15 8 W 1017,6 19 28 0,0
21.09.2017 19:00:00 24,8 6,5 25,8 17,8 19,0 9 5 17 9 WNW 1016,8 20 60 0,0
21.09.2017 18:00:00 25,6 5,2 26,1 17,5 19,0 8 4 15 8 NW 1016,2 20 39 0,0
21.09.2017 17:00:00 26,5 6,5 29,8 17,1 19,0 5 3 13 7 WZW 1016,0 19 57 0,0
21.09.2017 16:00:00 25,8 8,3 29,2 16,7 19,0 4 2 10 6 N 1016,0 20 54 0,0
21.09.2017 15:00:00 24,9 8,0 30,5 16,4 19,0 5 3 12 7 O 1016,3 18 60 0,0
21.09.2017 14:00:00 24,0 9,6 29,6 16,1 19,0 3 1 9 5 N 1016,7 20 60 0,0
21.09.2017 13:00:00 22,2 8,7 26,5 15,9 19,1 3 2 9 5 NO 1017,2 20 60 0,0
21.09.2017 12:00:00 20,4 8,7 23,0 15,9 19,1 6 3 15 8 ZZO 1017,4 19 60 0,0
21.09.2017 11:00:00 17,8 9,2 18,9 15,9 19,1 8 4 17 9 ZZO 1017,7 20 60 0,0
21.09.2017 10:00:00 12,3 11,8 11,1 16,1 19,1 0 0 2 1 N 1018,0 20 60 0,0
21.09.2017 09:00:00 7,7 7,6 3,5 16,3 19,1 0 0 3 1 N 1018,0 20 43 0,0
21.09.2017 08:00:00 5,6 5,3 2,9 16,4 19,1 0 0 2 1 N 1018,0 20 0 0,0
21.09.2017 07:00:00 5,9 5,6 3,0 16,6 19,1 0 0 0 0 N 1017,8 20 0 0,0
21.09.2017 06:00:00 6,0 5,6 3,4 16,8 19,1 0 0 0 0 N 1017,8 20 0 0,0
21.09.2017 05:00:00 6,8 6,4 3,8 17,0 19,1 0 0 0 0 N 1018,0 20 0 0,0
21.09.2017 04:00:00 7,0 6,6 4,0 17,2 19,1 0 0 4 2 N 1018,3 20 0 0,0
21.09.2017 03:00:00 7,6 7,0 4,7 17,3 19,1 0 0 3 2 N 1018,7 20 0 0,0
21.09.2017 02:00:00 8,0 7,2 4,8 17,5 19,2 0 0 5 3 N 1018,8 20 0 0,0
21.09.2017 01:00:00 8,3 7,4 5,4 17,7 19,1 2 1 5 3 Z 1018,8 20 0 0,0
21.09.2017 00:00:00 9,1 7,7 5,9 17,8 19,2 3 2 4 2 Z 1019,1 20 0 0,0
20.09.2017 23:00:00 9,9 8,0 6,5 17,9 19,2 0 0 4 2 N 1019,3 20 0 0,0
20.09.2017 22:00:00 10,8 8,2 7,2 18,0 19,2 3 1 4 2 Z 1019,6 20 0 0,0
20.09.2017 21:00:00 13,3 8,8 8,5 18,0 19,2 0 0 0 0 N 1019,7 20 0 0,0
20.09.2017 20:00:00 17,8 8,4 13,6 17,8 19,2 3 1 8 4 ONO 1019,3 20 37 0,0
20.09.2017 19:00:00 20,2 5,0 23,2 17,5 19,1 5 3 14 7 ONO 1019,5 20 60 0,0
20.09.2017 18:00:00 21,1 4,6 26,4 17,3 19,2 5 3 12 6 N 1019,7 20 60 0,0
20.09.2017 17:00:00 21,2 5,5 27,1 17,0 19,2 5 3 16 9 N 1020,1 20 60 0,0
20.09.2017 16:00:00 20,5 6,1 26,9 16,6 19,2 8 5 24 13 NNO 1020,5 20 60 0,0
20.09.2017 15:00:00 19,8 5,8 26,0 16,3 19,2 9 5 18 10 NNO 1021,0 20 60 0,0
20.09.2017 14:00:00 19,7 7,4 25,0 16,1 19,2 8 4 16 9 O 1021,8 20 60 0,0
20.09.2017 13:00:00 18,3 8,5 23,7 15,9 19,2 8 4 16 9 NO 1022,3 20 60 0,0
20.09.2017 12:00:00 18,2 10,3 22,0 15,8 19,2 2 1 8 4 O 1022,9 20 60 0,0
20.09.2017 11:00:00 14,9 10,5 17,7 15,9 19,3 2 1 5 3 N 1023,5 20 60 0,0
20.09.2017 10:00:00 11,1 10,8 11,1 16,0 19,3 3 2 8 4 Z 1024,0 20 60 0,0
20.09.2017 09:00:00 8,1 8,0 3,2 16,2 19,3 5 3 8 4 Z 1024,4 20 43 0,0
20.09.2017 08:00:00 5,8 5,5 2,6 16,4 19,3 0 0 4 2 N 1024,5 20 0 0,0
20.09.2017 07:00:00 6,0 5,6 2,6 16,5 19,3 0 0 4 2 N 1024,6 12 0 0,0
20.09.2017 06:00:00 6,5 6,1 3,2 16,7 19,3 2 1 5 3 ZZW 1024,5 20 0 0,0
20.09.2017 05:00:00 6,8 6,4 4,0 16,9 19,3 4 2 8 4 ZZW 1024,7 20 0 0,0
20.09.2017 04:00:00 7,8 7,2 4,8 17,0 19,3 0 0 8 4 N 1024,8 20 0 0,0
20.09.2017 03:00:00 8,2 7,4 5,5 17,2 19,3 3 1 6 3 ZZW 1025,2 20 0 0,0
20.09.2017 02:00:00 8,7 7,6 5,9 17,4 19,3 0 0 8 5 N 1025,4 20 0 0,0
20.09.2017 01:00:00 8,7 7,0 6,1 17,5 19,3 6 3 8 4 Z 1025,5 20 0 0,0
20.09.2017 00:00:00 10,6 7,5 7,7 17,6 19,3 4 2 8 4 ZZO 1025,6 20 0 0,0
19.09.2017 23:00:00 13,0 8,1 9,5 17,7 19,4 4 2 9 5 NW 1025,6 20 0 0,0
19.09.2017 22:00:00 14,8 9,2 11,7 17,7 19,4 3 2 12 7 W 1025,4 20 0 0,0
19.09.2017 21:00:00 16,1 9,3 14,4 17,7 19,4 8 5 15 8 NW 1024,7 20 0 0,0
19.09.2017 20:00:00 17,2 9,1 15,5 17,7 19,4 6 4 26 14 WNW 1023,8 20 6 0,0
19.09.2017 19:00:00 18,2 8,5 17,7 17,5 19,4 9 5 24 13 WNW 1023,2 20 0 0,0
19.09.2017 18:00:00 19,0 8,0 18,9 17,4 19,4 9 5 29 16 W 1023,1 20 3 0,0
19.09.2017 17:00:00 19,9 7,3 19,3 17,1 19,4 12 6 30 16 W 1023,1 20 31 0,0
19.09.2017 16:00:00 19,8 6,5 19,9 16,9 19,4 15 8 31 17 W 1023,4 20 31 0,2
19.09.2017 15:00:00 19,2 6,6 19,1 16,6 19,4 14 8 32 18 WNW 1023,8 19 40 0,0
19.09.2017 14:00:00 18,6 7,7 19,9 16,5 19,4 15 8 33 18 WNW 1024,3 20 48 0,0
19.09.2017 13:00:00 17,6 9,2 17,0 16,4 19,5 13 7 32 17 WNW 1024,6 20 24 0,0
19.09.2017 12:00:00 16,8 10,4 17,7 16,3 19,5 11 6 28 15 WNW 1024,7 20 39 0,0
19.09.2017 11:00:00 16,0 11,4 17,5 16,4 19,5 12 7 22 12 WZW 1024,8 20 54 0,0
19.09.2017 10:00:00 14,5 11,3 13,6 16,5 19,5 10 5 17 9 WZW 1024,8 20 54 0,0
19.09.2017 09:00:00 10,8 10,5 7,9 16,6 19,5 6 3 12 7 Z 1024,6 20 45 0,0
19.09.2017 08:00:00 8,7 8,2 7,2 16,8 19,5 9 5 12 7 Z 1024,6 20 0 0,0
19.09.2017 07:00:00 9,6 9,0 7,8 16,9 19,5 6 4 9 5 ZZW 1024,3 20 0 0,0
19.09.2017 06:00:00 9,7 8,8 7,5 17,1 19,5 4 2 9 5 Z 1024,1 20 0 0,0

tt = temperatuur
td = dauwpunt
tt 5cm = temperatuur 5cm
tt -20cm = temperatuur -20cm
tt -100cm = temperatuur -100cm
ff = windsnelheid
fx = windstoten
dd = windrichting
ppp = luchtdruk
vv = zicht
sd = Zonneschijnduur
rr = neerslag

Weerstations in de omgeving